Temperature
29 30 30 29 29 29 29 29 29 29 29 29 28 27 26 25 24 24 22 22 21 20 20 19 19 19 19 18 18 18 18 18 18 18 17 17 17 17 17 16 16 16 16 16
28 29 29 29 29 29 29 29 29 29 29 28 27 26 25 24 23 23 22 21 21 20 19 19 19 18 18 18 18 18 17 17 17 17 17 17 17 16 16 16 16 16 15 15
28 28 28 28 28 28 28 28 28 28 28 27 26 25 24 23 23 22 21 21 20 20 19 19 18 18 18 18 18 17 17 17 17 17 16 16 16 16 16 16 15 15 15 15
28 27 26 28 28 28 28 28 28 27 27 26 26 25 24 23 22 21 21 20 20 19 19 18 18 18 17 17 17 17 17 17 16 16 16 16 16 16 15 15 15 15 14 14
27 27 27 27 27 27 27 27 27 26 26 25 24 24 24 22 21 21 20 19 19 19 19 18 18 17 17 17 17 16 16 16 16 16 16 16 16 15 15 15 15 14 14 14
26 26 26 27 27 26 26 26 26 25 25 24 24 25 24 21 20 20 19 19 18 18 18 18 17 17 17 17 16 16 16 16 16 16 16 15 15 15 15 14 14 14 14 14
26 26 27 26 26 25 25 25 24 24 24 23 23 23 21 20 19 19 18 18 18 17 17 17 17 16 16 16 15 15 15 15 15 15 15 15 15 15 14 14 14 14 13 13
25 25 26 25 25 25 24 23 23 23 23 23 22 21 20 19 19 18 18 17 17 17 17 16 16 16 15 15 15 15 15 15 15 15 15 15 14 14 14 13 13 13 13 13
25 25 23 23 23 22 22 22 22 22 22 21 21 20 19 19 18 18 17 17 17 17 16 16 16 15 15 15 15 14 14 15 15 14 14 14 14 13 13 13 13 13 13 13
23 24 23 22 22 21 21 21 21 21 20 20 20 19 19 18 17 17 17 17 16 16 16 16 15 15 15 14 14 14 14 14 14 14 14 13 13 13 13 13 13 12 12 12
22 22 22 22 21 21 20 20 20 20 19 19 19 19 18 17 17 17 16 16 16 16 15 15 15 15 15 14 14 14 14 14 14 13 13 13 13 13 12 12 12 12 12 12
22 21 22 21 20 20 20 19 19 19 19 18 18 18 17 17 16 16 16 15 15 15 15 15 15 15 14 14 14 14 13 13 13 13 13 12 12 12 12 12 12 12 12 11
20 20 20 20 19 19 19 19 18 18 18 18 17 17 17 16 16 15 15 15 15 15 15 14 14 14 14 14 13 13 13 13 13 12 12 12 12 12 12 12 12 11 11 11
18 18 18 18 19 18 18 18 18 18 17 17 17 16 16 16 15 15 15 15 14 14 14 14 14 14 13 13 13 13 13 13 12 12 12 12 12 12 12 12 11 11 11 11
17 17 18 18 18 18 17 17 17 17 17 17 16 16 16 15 15 15 15 14 14 14 14 14 13 13 13 13 13 12 12 12 12 12 12 11 11 11 11 11 11 11 11 11
17 17 17 17 17 17 17 17 17 17 16 16 16 15 15 15 15 14 14 14 14 14 13 13 13 13 13 13 12 12 12 12 12 11 11 11 11 11 11 11 11 11 11 10
16 17 17 17 16 16 16 16 16 16 16 15 15 15 15 14 14 14 14 13 13 13 13 13 13 13 12 12 12 12 12 11 11 11 11 11 11 11 11 11 10 10 10 10
16 16 16 16 16 16 15 15 15 15 15 14 14 14 14 14 14 14 13 13 13 13 13 12 12 12 12 12 12 11 11 11 11 11 11 11 10 10 10 10 10 10 10 10
15 15 15 15 15 15 14 14 14 14 14 14 14 13 13 13 13 13 13 13 12 12 12 12 12 12 12 12 11 11 11 11 10 10 10 10 10 10 10 10 10 10 10 10
14 14 14 14 14 14 14 14 13 13 13 13 13 13 13 13 13 13 12 12 12 12 12 12 12 11 11 11 11 11 10 10 10 10 10 10 10 10 10 10 10 9 9 9
14 14 13 13 13 13 13 13 13 13 13 12 13 12 12 12 12 12 12 12 12 12 11 11 11 11 11 11 10 10 10 10 10 10 10 10 9 9 9 9 9 9 9 9
13 13 13 13 13 13 12 12 12 12 12 12 12 12 12 12 12 12 12 12 11 11 11 11 10 11 10 10 10 10 10 9 9 9 9 9 9 9 9 9 9 9 9 9
13 12 12 12 12 12 12 12 12 12 12 12 12 12 12 12 12 12 12 11 11 11 10 10 10 10 10 10 9 9 9 9 9 9 9 9 9 8 8 8 8 8 8 8
12 12 12 12 12 12 11 12 11 11 11 11 11 11 11 11 11 11 11 11 11 10 10 10 10 10 10 9 9 9 9 9 9 9 9 8 8 8 8 8 8 8 8 8
12 12 12 12 11 12 11 11 11 11 11 11 11 11 11 11 11 11 11 10 10 10 10 10 10 9 9 9 9 9 9 9 9 8 8 8 8 8 8 8 8 7 7 7
11 11 11 11 11 11 11 11 11 11 11 11 11 11 11 10 10 10 10 10 10 10 9 9 9 9 9 9 9 9 9 8 8 8 8 8 8 8 7 7 7 7 7 7
11 11 11 11 11 11 11 11 11 11 11 10 10 10 10 10 10 10 10 10 9 9 9 9 9 9 9 8 8 8 8 8 8 8 8 8 7 7 7 7 7 7 7 6
Wind_Speed
8 7 7 8 8 8 10 10 11 10 8 5 3 2 1 0 0 1 1 1 2 2 2 3 3 3 3 3 3 3 3 4 4 4 4 3 3 3 3 4 4 4 4 5
8 8 8 8 8 8 9 9 10 10 7 2 2 1 1 1 1 0 0 0 1 1 2 3 3 3 3 3 3 3 3 3 3 3 3 4 4 4 4 4 4 4 4 5
9 8 9 10 8 8 8 7 8 9 4 2 2 2 1 1 1 2 1 1 1 1 2 2 3 3 3 3 3 3 3 4 3 3 3 4 4 4 4 4 5 5 5 5
8 7 11 4 2 5 7 6 5 4 2 2 2 2 1 1 2 2 2 2 1 1 1 2 2 2 3 3 3 4 4 4 4 4 4 4 4 4 4 4 4 5 5 4
8 11 10 5 3 4 6 6 3 3 2 1 1 2 2 3 3 3 2 2 2 1 1 1 2 2 2 3 3 3 4 4 4 4 4 4 4 4 4 4 4 4 4 4
9 11 11 4 4 2 5 7 2 2 1 1 2 5 1 3 3 3 3 2 2 1 1 1 2 2 3 3 3 3 3 3 3 4 4 4 4 4 3 3 4 4 4 4
11 12 8 2 3 4 7 3 2 1 1 2 2 4 3 2 2 2 2 2 2 1 1 1 2 2 3 3 3 3 3 3 3 3 4 3 3 3 3 3 3 4 5 5
10 12 8 3 4 3 1 2 1 0 1 1 1 1 2 2 2 2 2 2 2 1 1 1 1 2 3 3 3 2 3 3 3 3 3 2 3 3 4 4 4 4 5 5
5 3 3 2 1 1 1 0 0 1 1 1 1 0 1 1 1 1 2 2 2 1 1 2 1 2 3 3 3 3 3 3 3 3 3 3 3 4 4 4 4 4 4 5
4 3 2 1 1 1 1 1 1 1 1 2 2 1 1 1 1 1 2 2 2 2 2 2 2 2 3 3 3 3 3 3 3 3 3 2 3 3 3 4 4 4 4 4
7 5 4 4 3 2 1 1 1 1 1 2 2 2 1 1 1 2 2 2 3 3 3 3 3 2 2 2 3 3 4 3 3 3 2 3 3 3 4 4 4 5 5 5
6 3 5 4 3 3 3 3 2 1 1 1 2 2 2 2 2 2 3 3 3 3 3 2 2 2 2 2 2 3 3 3 3 3 2 3 2 2 2 3 2 3 5 6
4 4 5 4 4 4 4 4 3 3 2 2 2 2 2 2 2 2 3 3 4 3 3 2 2 2 2 2 3 3 4 3 3 3 3 3 3 3 3 3 2 3 4 4
4 4 5 5 5 4 5 4 3 3 3 3 2 2 2 3 3 3 3 3 3 3 3 2 2 2 2 2 3 3 4 3 4 3 3 3 3 4 4 4 3 3 2 4
6 6 6 5 5 4 4 4 4 4 3 3 2 3 3 3 3 3 2 2 3 3 3 3 3 3 3 3 3 4 4 3 3 3 3 3 4 4 3 3 3 3 3 2
6 5 5 5 5 5 5 5 5 4 4 3 3 3 3 3 3 3 2 2 3 3 3 3 4 4 3 3 3 3 3 2 4 4 3 3 3 3 3 2 3 3 3 3
6 6 5 5 5 5 5 5 5 4 4 3 3 3 3 3 3 3 2 2 2 2 3 3 4 4 3 3 3 3 3 2 3 4 3 2 2 3 2 3 3 3 3 3
6 6 6 5 5 4 4 4 3 3 3 3 3 3 3 3 3 2 2 2 2 2 3 3 3 3 3 2 2 3 2 3 3 3 2 2 2 2 2 3 3 4 3 2
4 4 4 4 3 3 2 2 2 2 2 2 3 2 2 2 2 2 1 1 2 3 3 3 2 2 2 1 1 1 2 2 2 2 2 2 2 2 2 3 3 3 3 3
2 2 2 2 2 1 1 2 1 1 1 2 2 2 2 2 2 1 1 2 2 2 2 2 2 1 1 1 1 1 2 2 2 2 2 2 2 3 3 3 3 3 3 3
2 1 1 1 1 1 1 1 1 1 1 2 2 2 2 2 2 2 2 2 2 2 1 1 1 1 1 2 1 2 2 2 2 2 2 3 3 3 3 3 3 3 3 3
1 2 2 2 2 2 1 1 1 1 2 2 2 2 2 2 2 2 1 1 2 2 1 2 2 4 4 4 2 2 2 2 2 2 3 3 3 3 3 3 3 3 3 3
1 2 2 2 2 1 1 2 2 2 1 2 2 2 2 2 2 2 1 1 1 2 2 2 4 5 5 3 2 2 2 2 2 2 2 2 2 2 2 3 3 3 3 3
1 1 1 1 2 2 2 2 2 1 1 2 1 1 1 2 1 1 1 2 2 1 1 3 3 3 4 2 2 2 2 2 2 2 2 2 2 2 2 3 3 3 3 4
1 1 1 2 3 2 2 1 1 1 1 1 1 1 1 1 1 1 1 1 1 0 1 1 2 2 2 2 2 2 2 2 2 2 2 2 2 2 2 2 3 3 4 4
0 1 0 1 1 1 1 1 1 1 0 1 1 1 1 1 1 1 1 0 0 0 1 1 1 1 2 2 2 3 3 2 2 2 2 2 2 2 2 3 3 3 3 4
1 1 1 1 1 1 1 1 1 1 1 1 1 1 1 1 1 1 1 1 1 1 1 1 1 1 1 2 2 2 3 3 2 2 2 2 2 2 2 3 3 3 4 4
Wind_Direction
255 256 249 245 244 238 244 260 270 276 272 273 299 315 329 339 130 141 126 131 146 164 160 169 178 188 196 197 194 194 204 217 215 221 225 228 230 236 246 257 260 260 266 269
240 237 239 244 246 243 242 254 262 267 266 316 337 341 334 0 332 322 103 106 166 173 180 190 195 199 202 206 203 202 217 222 215 223 228 233 238 244 251 259 269 271 272 276
243 234 242 242 240 241 241 248 261 265 278 293 286 300 287 332 331 329 344 329 267 220 207 215 207 213 217 215 210 211 224 230 222 225 234 240 247 252 259 264 267 271 273 277
248 230 243 243 217 246 246 245 250 263 275 268 290 290 195 33 351 334 337 326 306 270 244 235 215 219 233 222 220 227 228 231 230 231 236 239 244 252 260 266 270 270 271 272
244 242 242 213 209 221 237 241 236 260 261 277 310 223 148 41 355 337 331 324 308 286 264 247 220 216 228 235 233 238 245 248 247 243 241 243 248 256 262 268 270 269 268 269
243 252 255 231 171 207 242 235 206 242 238 231 245 252 68 34 352 345 354 346 331 306 273 221 226 223 229 241 244 253 262 266 264 258 253 252 256 260 263 264 262 267 269 270
244 251 252 142 147 194 234 257 122 230 225 229 264 333 14 1 355 351 360 3 347 321 291 249 235 235 245 255 263 274 279 276 272 265 257 255 259 261 263 268 273 272 273 273
243 248 244 119 175 222 342 49 112 255 260 265 335 12 21 5 356 3 10 6 346 329 302 285 248 240 254 262 278 285 280 274 274 274 270 265 261 263 270 274 268 265 267 273
257 266 64 112 127 42 38 157 204 269 318 301 266 289 8 354 1 12 10 1 330 312 296 301 285 267 267 274 280 280 279 279 273 269 274 279 270 268 267 267 272 277 275 276
250 235 237 205 185 196 247 268 284 286 294 283 279 276 317 336 328 330 335 332 319 311 305 310 307 288 280 276 269 267 275 277 269 263 269 276 278 278 284 287 286 285 282 282
248 249 247 227 218 215 233 241 262 290 311 308 299 287 283 286 303 303 308 310 311 306 305 309 304 291 289 277 265 270 272 271 266 263 269 272 276 291 290 298 299 291 288 282
265 250 257 249 238 245 238 237 240 257 295 298 291 287 284 278 289 303 306 304 302 295 297 304 295 288 292 290 272 265 266 268 264 255 255 260 271 298 328 284 286 283 290 289
287 293 285 275 261 253 244 241 243 249 256 268 282 286 289 288 288 303 311 308 306 300 292 293 298 301 305 297 285 273 271 269 267 261 254 259 265 275 291 291 240 239 255 257
271 286 280 273 272 264 250 243 245 249 251 251 254 262 275 286 292 295 305 310 310 306 301 298 297 299 308 296 281 278 278 266 261 264 264 266 264 269 274 279 287 295 259 221
266 271 271 277 271 261 252 244 245 247 248 253 255 260 273 282 284 285 285 292 300 299 308 307 296 294 298 288 281 282 285 289 278 269 264 263 266 268 274 282 288 290 294 266
271 271 265 263 261 259 256 253 252 252 252 256 269 280 281 281 280 278 280 280 279 293 308 304 293 290 292 291 289 284 287 283 275 272 266 266 268 271 278 283 284 288 295 305
249 252 256 260 261 260 262 268 268 263 259 260 273 280 276 274 270 267 281 290 288 295 300 296 295 294 289 287 286 291 298 293 260 265 268 275 282 284 290 289 290 297 305 325
255 256 254 259 264 270 279 281 272 263 263 273 275 270 268 266 272 283 298 311 312 311 313 309 311 300 289 292 295 297 298 301 303 298 291 289 297 303 306 308 309 306 305 293
249 258 260 262 267 273 277 286 290 277 264 270 274 277 286 289 293 292 302 301 301 303 315 322 315 283 299 317 308 275 290 301 303 311 305 308 294 298 300 306 306 300 297 301
234 243 245 252 254 257 265 276 283 289 286 280 281 288 297 321 315 305 312 307 333 338 327 325 318 342 345 344 310 310 313 303 301 312 311 302 296 292 294 302 304 304 310 311
243 239 230 237 245 260 270 280 275 283 288 271 265 287 309 333 320 310 307 327 27 24 3 307 301 347 353 355 294 318 312 307 305 298 289 286 289 297 302 310 314 313 315 318
232 231 237 252 256 255 259 262 258 256 259 254 263 274 293 314 298 296 351 359 19 37 349 339 359 30 1 323 317 331 320 311 308 309 306 305 309 313 315 317 313 317 323 326
229 221 225 239 238 238 240 248 250 246 246 262 272 273 285 297 295 297 328 44 31 4 354 19 25 17 330 315 340 334 317 308 308 307 306 308 307 307 311 314 321 331 335 332
255 228 216 207 216 226 231 243 246 235 238 251 258 272 269 273 291 327 7 91 79 355 1 58 46 343 298 322 341 334 324 316 310 306 304 298 293 297 307 317 327 334 333 326
272 240 199 202 216 221 217 209 201 211 236 251 296 292 275 278 284 327 356 23 97 260 321 101 141 282 301 342 340 330 323 326 321 317 313 315 315 318 324 329 335 335 330 328
322 276 235 240 251 234 222 211 239 262 275 288 304 319 331 315 268 253 254 235 162 87 301 312 321 278 315 328 329 330 330 328 320 310 320 321 324 326 327 329 333 333 332 329
234 236 211 218 208 212 210 204 221 245 256 262 290 317 320 314 305 306 304 288 280 283 289 300 302 302 312 317 320 325 328 328 325 322 321 318 315 314 319 323 328 332 332 332
Height
1478 1475 1476 1479 1480 1480 1482 1481 1484 1481 1480 1480 1483 1487 1490 1492 1493 1494 1495 1496 1497 1498 1499 1500 1501 1501 1502 1502 1503 1503 1503 1504 1503 1504 1504 1504 1504 1504 1503 1503 1502 1501 1500 1499
1481 1477 1477 1480 1478 1478 1480 1480 1480 1480 1481 1481 1485 1488 1491 1492 1493 1494 1495 1495 1496 1497 1497 1498 1499 1499 1500 1500 1501 1501 1501 1501 1500 1501 1501 1501 1501 1501 1500 1499 1499 1498 1497 1496
1482 1477 1479 1484 1478 1478 1479 1478 1479 1481 1481 1483 1486 1488 1490 1492 1493 1493 1494 1495 1495 1495 1496 1496 1497 1497 1498 1498 1498 1498 1499 1499 1498 1498 1498 1498 1498 1497 1496 1496 1496 1495 1494 1493
1479 1485 1496 1479 1473 1475 1477 1478 1478 1479 1482 1485 1487 1488 1490 1491 1492 1493 1493 1493 1493 1493 1494 1495 1495 1495 1496 1496 1495 1496 1496 1495 1495 1494 1495 1495 1494 1494 1493 1492 1492 1491 1490 1489
1480 1483 1480 1478 1476 1477 1479 1480 1480 1481 1483 1485 1487 1487 1488 1491 1492 1492 1492 1492 1492 1492 1492 1492 1492 1492 1493 1493 1493 1492 1492 1492 1492 1491 1491 1491 1491 1490 1490 1489 1488 1487 1487 1486
1481 1485 1485 1476 1474 1477 1480 1482 1481 1482 1484 1485 1486 1483 1486 1490 1491 1491 1491 1491 1490 1490 1490 1490 1490 1490 1490 1490 1490 1489 1489 1489 1489 1488 1488 1488 1488 1487 1486 1485 1484 1484 1483 1482
1479 1480 1473 1472 1476 1479 1486 1483 1482 1483 1485 1485 1486 1486 1489 1489 1490 1490 1490 1489 1489 1489 1489 1488 1488 1488 1488 1488 1487 1486 1486 1486 1485 1485 1485 1484 1484 1483 1482 1481 1481 1480 1479 1478
1477 1481 1478 1475 1476 1479 1482 1483 1484 1484 1485 1486 1487 1488 1489 1489 1489 1489 1488 1488 1488 1488 1487 1487 1486 1485 1485 1485 1485 1483 1483 1483 1482 1482 1482 1481 1480 1480 1479 1478 1477 1476 1475 1474
1474 1476 1478 1478 1480 1482 1483 1484 1484 1485 1486 1486 1487 1488 1488 1488 1488 1488 1488 1487 1487 1486 1486 1485 1484 1483 1483 1483 1482 1481 1480 1480 1480 1479 1479 1478 1477 1476 1476 1474 1474 1473 1472 1471
1477 1475 1478 1480 1481 1483 1484 1484 1485 1485 1486 1486 1486 1487 1487 1487 1487 1487 1487 1486 1486 1485 1484 1483 1482 1482 1481 1480 1479 1479 1478 1477 1477 1476 1476 1475 1474 1474 1473 1472 1471 1470 1469 1468
1477 1478 1479 1479 1481 1482 1483 1484 1484 1485 1485 1485 1485 1486 1486 1486 1486 1486 1485 1485 1484 1483 1483 1482 1481 1479 1479 1478 1477 1476 1475 1475 1474 1474 1473 1472 1471 1470 1470 1469 1469 1468 1467 1466
1474 1477 1478 1479 1480 1481 1482 1482 1483 1483 1484 1484 1485 1484 1485 1484 1484 1484 1483 1482 1482 1481 1480 1479 1479 1477 1476 1475 1474 1473 1473 1473 1472 1471 1470 1470 1468 1468 1466 1466 1465 1464 1463 1462
1479 1479 1479 1479 1479 1480 1481 1481 1482 1482 1482 1483 1483 1483 1483 1482 1482 1481 1481 1480 1480 1479 1478 1477 1476 1475 1474 1473 1472 1471 1471 1470 1469 1469 1468 1467 1466 1465 1464 1463 1462 1460 1460 1459
1479 1480 1479 1478 1478 1478 1479 1479 1479 1480 1480 1480 1481 1481 1481 1480 1480 1479 1478 1478 1477 1477 1476 1475 1474 1473 1472 1471 1470 1469 1469 1468 1467 1466 1465 1464 1463 1463 1462 1461 1459 1457 1457 1455
1478 1478 1477 1477 1477 1477 1477 1477 1477 1477 1478 1478 1478 1478 1478 1478 1477 1477 1476 1475 1475 1474 1474 1473 1472 1471 1469 1469 1468 1467 1466 1466 1464 1464 1463 1462 1461 1460 1459 1458 1457 1456 1454 1453
1475 1475 1475 1475 1475 1475 1475 1475 1475 1475 1475 1475 1475 1475 1475 1475 1475 1474 1474 1473 1473 1472 1471 1470 1469 1468 1467 1466 1466 1465 1464 1462 1461 1461 1460 1459 1458 1458 1456 1455 1454 1453 1452 1451
1473 1472 1472 1473 1473 1472 1472 1472 1472 1473 1473 1473 1473 1473 1472 1472 1472 1472 1472 1471 1470 1469 1469 1468 1467 1465 1464 1463 1463 1462 1461 1460 1459 1458 1457 1456 1455 1455 1454 1453 1452 1451 1450 1449
1470 1470 1471 1471 1470 1470 1470 1470 1470 1470 1471 1471 1471 1470 1470 1470 1469 1469 1469 1468 1468 1467 1466 1465 1464 1463 1462 1461 1460 1460 1459 1458 1457 1456 1455 1454 1453 1452 1451 1451 1450 1449 1447 1446
1468 1468 1468 1468 1468 1468 1468 1468 1468 1468 1468 1468 1468 1468 1468 1467 1467 1467 1466 1466 1466 1465 1464 1463 1461 1461 1459 1458 1457 1457 1457 1456 1455 1454 1453 1452 1451 1450 1450 1449 1448 1446 1445 1444
1466 1466 1466 1466 1466 1466 1466 1466 1466 1466 1466 1466 1466 1466 1466 1465 1465 1464 1464 1464 1464 1463 1462 1460 1459 1459 1458 1457 1456 1455 1455 1454 1453 1452 1451 1451 1450 1449 1448 1447 1446 1445 1444 1442
1464 1464 1464 1464 1464 1464 1464 1464 1464 1464 1464 1465 1465 1464 1464 1464 1463 1463 1463 1462 1461 1461 1460 1459 1458 1457 1457 1456 1455 1454 1454 1453 1452 1451 1450 1449 1449 1448 1447 1446 1445 1444 1442 1441
1461 1462 1462 1462 1462 1462 1462 1462 1462 1463 1463 1463 1463 1463 1463 1462 1462 1462 1461 1461 1460 1459 1458 1458 1457 1456 1455 1454 1454 1453 1452 1452 1451 1450 1449 1448 1447 1446 1445 1445 1444 1442 1441 1439
1459 1459 1459 1460 1460 1460 1460 1460 1461 1461 1461 1461 1461 1461 1461 1461 1461 1461 1460 1460 1459 1458 1458 1457 1456 1454 1453 1453 1453 1452 1451 1451 1450 1449 1448 1447 1446 1445 1444 1443 1442 1440 1439 1437
1456 1457 1457 1457 1458 1458 1458 1459 1459 1460 1459 1459 1459 1459 1459 1459 1459 1459 1459 1458 1457 1457 1457 1456 1455 1454 1453 1452 1452 1451 1450 1450 1449 1448 1446 1445 1444 1443 1442 1441 1440 1438 1437 1435
1455 1455 1455 1455 1456 1456 1457 1457 1457 1457 1458 1458 1458 1457 1458 1458 1458 1457 1457 1456 1456 1455 1455 1454 1453 1452 1452 1452 1451 1450 1449 1449 1447 1446 1445 1444 1443 1442 1440 1439 1438 1436 1435 1433
1454 1454 1454 1454 1455 1455 1455 1455 1456 1456 1456 1456 1456 1456 1456 1456 1456 1456 1455 1455 1455 1454 1454 1453 1452 1451 1451 1451 1450 1449 1448 1447 1446 1445 1444 1442 1441 1440 1439 1438 1436 1435 1433 1431
1453 1453 1453 1454 1454 1454 1454 1454 1454 1455 1455 1455 1455 1455 1455 1455 1455 1454 1454 1453 1453 1453 1452 1452 1451 1450 1450 1449 1448 1447 1446 1445 1444 1443 1442 1441 1439 1438 1437 1436 1435 1433 1431 1430